Voltar ao catálogo

DSX

AtivoCiênciaMEO
NORAD 44344·PAYLOAD·🇺🇸 United States

Lançado Jun 25, 2019 de Cape Canaveral Space Force Station

Loading…

Próximas Passagens (próximas 24 horas)

TLE

AtualizadoSource: Space-Track

Época: Sep 13, 2026, 10:23 UTC

1 44344U 19036F   26256.43310322 -.00000051  00000-0  00000+0 0  9993
2 44344  42.3040 318.4442 1967337  53.6811 322.9802  4.54371389119809

Acompanhe DSX em tempo real com AllMySat

Download on the App Store